Location: Unspecified
(48.2082°N, 0.0000°E)
Time: 02:30:35
(UTC+00:00)

Transit 4A - Pass Details

Date: 21 June 2019
Orbit: 862 x 982 km, 66.8° (Epoch: 23 July)

Event Time Altitude Azimuth Distance (km) Brightness Sun altitude
Rises 08:50:14 0° 216° (SW) 3,613 10.8 45.0°
Reaches altitude 10° 08:52:45 10° 218° (SW) 2,686 10.3 45.4°
Maximum altitude 08:59:03 81° 305° (NW) 992 8.8 46.4°
Drops below altitude 10° 09:05:31 10° 34° (NE) 2,744 10.6 47.4°
Sets 09:08:07 0° 35° (NE) 3,697 11.2 47.8°
